This is the latest recevied weather packets stored in our database for station/object N9XRG. If no packets are shown the sender has not sent any weather packets the latest 10 day(s).
| Time | Temp. | Humidity | Pressure | Rain* | Wind** | Luminosity | Snow |
|---|---|---|---|---|---|---|---|
| 1777409809 | 15.56° C | 71% | 1013.8 hPa | 0 mm | - | 267 W/m² | - |
| 1777409505 | 15.56° C | 72% | 1013.7 hPa | 0 mm | - | 243 W/m² | - |
| 1777409201 | 16.11° C | 69% | 1013.5 hPa | 0 mm | - | 248 W/m² | - |
| 1777408897 | 16.11° C | 70% | 1013.6 hPa | 0 mm | - | 211 W/m² | - |
| 1777408594 | 16.11° C | 69% | 1013.4 hPa | 0 mm | - | 257 W/m² | - |
| 1777408290 | 16.11° C | 69% | 1013.6 hPa | 0 mm | - | 282 W/m² | - |
| 1777407990 | 16.11° C | 68% | 1013.5 hPa | 0 mm | - | 261 W/m² | - |
| 1777407687 | 16.11° C | 71% | 1013.4 hPa | 0 mm | - | 355 W/m² | - |
| 1777407388 | 16.11° C | 70% | 1013.6 hPa | 0 mm | - | 463 W/m² | - |
| 1777407088 | 16.11° C | 69% | 1013.6 hPa | 0 mm | - | 364 W/m² | - |
| 1777406783 | 16.67° C | 67% | 1013.7 hPa | 0 mm | - | 386 W/m² | - |
| 1777406479 | 16.67° C | 69% | 1013.8 hPa | 0 mm | - | 430 W/m² | - |
| 1777406174 | 16.11° C | 71% | 1013.6 hPa | 0 mm | - | 486 W/m² | - |
| 1777405869 | 16.11° C | 68% | 1014 hPa | 0 mm | - | 427 W/m² | - |
| 1777405565 | 16.11° C | 71% | 1014.2 hPa | 0 mm | - | 351 W/m² | - |
| 1777405263 | 15.56° C | 71% | 1014 hPa | 0 mm | - | 335 W/m² | - |
| 1777404962 | 15.56° C | 71% | 1014.1 hPa | 0 mm | - | 377 W/m² | - |
| 1777404657 | 15.56° C | 73% | 1014.1 hPa | 0 mm | - | 313 W/m² | - |
| 1777404354 | 15.56° C | 72% | 1013.8 hPa | 0 mm | - | 355 W/m² | - |
| 1777404050 | 15.56° C | 71% | 1014.1 hPa | 0 mm | - | 383 W/m² | - |
| 1777403751 | 15.56° C | 73% | 1014.2 hPa | 0 mm | - | 374 W/m² | - |
| 1777403449 | 15.56° C | 72% | 1014 hPa | 0 mm | - | 368 W/m² | - |
| 1777403144 | 15.56° C | 72% | 1014.3 hPa | 0 mm | - | 268 W/m² | - |
| 1777402840 | 15.56° C | 70% | 1014.3 hPa | 0 mm | - | 327 W/m² | - |
| 1777402537 | 15.56° C | 70% | 1014.1 hPa | 0 mm | - | 315 W/m² | - |
* Rain latest hour (hover to see other rain measurements)
** Current wind speed in m/s (hover to see current wind gust speed)